Lid_Strength_Index
0 0 0 0 0 0 1 0 -0 -0 -0 -0 -0 -1 -1 -0 1 6 8 5 3 -1 -0 5 7 8 8 8 7 9 12 14 14 13 13 11 12 11 12 13 13 12 13 12 12
0 0 0 0 0 0 1 0 0 -0 -0 -0 -0 -1 -0 0 5 7 3 0 -2 -1 7 8 9 8 9 9 9 11 13 13 12 12 12 12 12 12 13 14 14 14 13 13 13
0 1 1 0 1 0 1 0 0 0 -0 -0 -0 -1 -0 2 7 7 0 -1 -1 0 6 8 8 8 10 10 11 12 13 12 11 11 11 12 13 12 13 15 14 15 14 14 14
1 1 1 1 1 1 1 1 0 0 -0 -0 -0 -1 0 4 12 6 -1 -1 -1 4 7 7 8 10 12 12 10 13 11 11 10 11 11 12 12 13 14 14 13 14 14 15 15
1 1 1 1 1 1 1 1 0 0 0 -0 -1 -0 4 8 9 5 1 3 6 6 8 8 10 11 12 12 11 13 11 11 11 11 11 11 13 14 15 14 14 14 14 15 15
2 1 1 1 1 1 1 1 0 0 0 -0 -1 0 6 9 6 5 7 6 7 7 8 9 10 9 11 11 12 12 11 11 10 11 11 12 14 14 14 14 15 14 15 15 15
1 1 1 1 1 1 2 1 0 0 0 -0 -1 2 6 8 6 6 7 8 7 8 8 8 9 10 10 11 10 11 13 12 12 12 12 12 15 14 14 14 15 15 15 15 15
2 1 1 1 1 2 2 1 1 0 -0 -0 -0 4 8 5 6 6 7 7 7 8 7 8 8 9 11 11 11 14 14 15 13 12 12 13 16 14 14 15 16 17 17 16 16
2 1 1 1 1 2 2 1 1 -0 -0 -0 3 6 9 4 6 6 7 8 8 8 8 7 8 10 11 13 15 15 16 16 15 12 13 14 16 14 15 15 17 18 18 18 18
1 1 2 1 2 2 2 1 1 1 3 3 5 8 8 8 6 6 7 8 9 9 8 9 11 13 13 14 16 17 17 16 16 14 14 14 15 15 14 16 17 18 18 18 18
1 1 2 2 2 2 3 7 8 8 8 9 10 9 8 5 6 7 8 8 8 10 11 11 13 14 13 14 14 15 16 16 15 12 14 15 14 16 14 17 19 19 19 19 18
1 2 2 2 2 2 6 10 9 8 11 9 8 7 6 7 9 8 8 10 10 12 12 13 14 12 12 13 14 14 16 16 14 14 15 15 16 14 15 16 16 18 19 19 18
1 2 2 2 3 5 8 8 6 7 12 10 8 7 7 8 9 9 10 11 12 13 13 13 12 12 13 14 15 15 16 16 16 16 16 17 19 16 17 16 18 18 18 18 18
1 2 3 3 6 8 8 7 6 7 15 13 10 8 9 9 11 9 10 11 12 12 13 14 13 13 14 14 14 17 15 15 16 18 21 19 22 19 19 18 18 18 19 19 19
1 2 4 4 9 9 7 6 7 10 21 13 10 7 9 10 10 10 10 11 12 12 13 13 15 15 15 14 13 15 15 16 17 19 21 20 22 20 20 20 19 18 19 20 19
2 2 4 6 9 8 8 8 10 15 20 13 10 11 11 11 11 10 11 11 12 14 14 13 13 14 14 13 14 14 15 17 18 20 24 21 21 23 22 19 18 18 19 19 19
2 3 5 6 9 8 7 10 17 19 14 13 12 11 12 12 12 11 12 14 13 15 16 15 15 14 13 15 14 15 18 20 23 24 22 21 23 18 18 18 18 18 19 20 19
1 4 5 6 7 8 8 13 20 17 15 12 12 13 13 12 12 13 14 14 13 14 17 17 17 15 14 15 15 16 17 20 24 24 19 22 23 20 19 19 17 17 19 19 19
3 6 6 6 7 7 13 17 16 15 13 12 13 15 14 13 12 14 15 15 12 13 14 17 17 16 16 15 15 17 19 17 21 31 28 23 21 19 20 21 21 20 20 20 20
6 6 7 6 6 9 16 14 14 12 11 12 15 13 15 14 14 15 15 14 13 12 12 14 17 17 17 16 17 17 16 20 21 25 28 24 22 20 22 22 21 21 21 21 20
6 10 9 7 7 11 15 15 13 10 10 11 13 14 13 13 14 15 14 13 12 14 14 15 15 18 18 18 17 19 19 19 19 19 23 25 19 19 20 19 21 20 20 20 20
5 11 9 7 12 15 14 15 12 12 10 10 11 12 12 12 14 14 14 12 12 14 15 15 17 19 19 18 18 17 17 17 21 22 21 21 21 18 18 18 19 20 20 20 19
9 10 6 6 13 13 13 13 12 14 13 13 13 12 11 13 14 13 12 12 13 13 15 15 18 21 19 20 20 20 19 16 18 18 20 23 20 20 20 20 20 20 20 20 19
10 14 11 10 11 13 13 13 12 10 11 12 13 13 14 14 12 14 14 14 13 13 10 12 17 17 17 16 18 20 21 19 17 20 20 20 19 16 18 21 21 21 20 20 19
9 13 12 15 14 12 13 14 14 13 11 10 12 11 12 14 13 14 13 15 16 13 14 14 17 17 14 14 17 16 16 19 20 19 20 18 17 15 14 16 20 19 20 19 19
9 11 12 15 14 13 13 14 15 15 14 14 13 12 11 13 12 13 11 15 14 17 17 16 17 17 18 16 17 19 17 17 17 17 18 17 18 14 13 19 20 20 19 19 19
6 8 9 11 14 14 14 14 14 13 13 12 12 11 14 13 9 9 11 12 11 14 17 18 18 19 19 18 19 22 19 18 17 16 17 20 17 14 16 19 20 20 19 18 19